OV1-10 R/B, 2621

Orbit data source: Space-Track

OV1-10 R/B, 2621 is space debris in LEO originally from a launch on Sun, 11 Dec 1966 UTC launched from the Air Force Western Test Range (AFWTR). Debris objects in space refer to the collection of defunct objects orbiting the Earth. Examples of debris include non-operational satellites, rocket bodies, and fragments generated from explosions, collisions, or faulty payload assembly.

Loading next visibility...
Identifier
2621, 1966-111C
Orbit
LEO
Country
Flag of USUS
Related business
Manufacturer
ABL
Mission
Spacecraft
Bus & Motor
ALTAIR, Unknown motor
Mass
125 kg wet, 125 kg dry
Launch date (UTC)
1966-12-11 (59 years ago)
Launch vehicle
Unknown
Launch site
Air Force Western Test Range (AFWTR)
Object type
Payload
Rocket body
Debris
Shape & HBR
Cyl, 1.1 m
Radar Cross Section
1.347 m², Large (>1 m²)

Expand to show TLE details & history
Last TLE update: 8 hours ago

TLE from 8 hours ago
0 OV1-10 R/B
1 02621U 66111C   25259.54835481  .00000697  00000-0  80666-4 0  9999
2 02621  93.3962  88.1592 0055345 324.2875  35.4651 14.84911206133749
Epoch: 2025-09-16T13:09Z
TLE epoch observation values (Epoch: 2025-09-16T13:09:37.855Z)
Latitude
-0.00009°
Longitude
-104.9856°
Altitude
585.538 km
Speed
7.584 km/s
True Right ascension
05h 52m 38s
True Declination
0° 00' 00"
Sunlit
Object was in daylight at epoch
Visualization orbit readout
Latitude
Unknown
Longitude
Unknown
Altitude
Unknown
Speed
Unknown
Apparent Right ascension
Unknown
Apparent Declination
Unknown
Sunlit
N/A
Visualization observer readout
Local Sidereal Time
13:44:58
Azimuth
Unknown
Elevation
Unknown
Doppler factor
Unknown
Orbital elements
Apogee altitude
649.434 km
Perigee altitude
572.073 km
Semi-major axis
6,988.891 km
Eccentricity
0.00553
Inclination
93.3962°
RAAN
88.1592°
Arg. of periapsis
324.2875°
True anomaly
35.83515°
Mean anomaly
35.4651°
Eccentric anomaly
35.64992°
Mean motion
3.71476 °/min
Orbital period
96.91 mins
BSTAR
0.000080666
Loading maneuver chart data...
Computing Atmospheric mass density...
Loading historical data...
Loading historical data...
Loading historical data...
Loading historical data...
Loading historical data...
Loading historical data...
Loading historical data...
Other satellites on launch #111 in the year 1966 (1966-12-11 UTC)

Documentation

Showing up to 5 results
|